Flag for Mexico Weather past 2 weeks in Monterrey, Nuevo León, Mexico

Now
75 °F

Clear.


Feels Like: 76 °F
Forecast: 70 / 95 °F
Wind: No wind

Location: Monterrey / Gen Maria

Current Time: Jul 25, 2014 at 6:24:11 AM

Latest Report: Jul 25, 2014 at 5:45 AM


Visibility: 15 mi

Pressure: 29.98 "Hg

Humidity: 78%

Dew point: 68 °F

Location of MonterreyLocation

Historic Weather in Monterrey — Graph

°F

Monterrey temperature yesterday

Maximum temperature yesterday: 97 °F (at 1:50 PM)
Minimum temperature yesterday: 75 °F (at 7:48 AM)
Average temperature yesterday: 88 °F

Past Weeks' High & Low Weather Summary

 TemperatureHumidityPressure
High100 °F (Jul 17, 3:45 PM)94% (Jul 10, 8:52 PM)30.19 "Hg (Jul 10, 8:52 PM)
Low70 °F (Jul 12, 4:40 AM)22% (Jul 16, 3:45 PM)29.70 "Hg (Jul 17, 6:51 PM)
Average83 °F58%29.95 "Hg
* Reported Jul 10 4:40 AM — Jul 25 4:43 AM, Monterrey, Weather by CustomWeather, © 2014

Note: Actual official high and low records may vary slightly from our data, if they occured in-between our weather recording intervals... More about our weather records

Advertising

Monterrey weather history for previous 24 hours

 ConditionsComfort  
Time TempWeatherWind HumidityBarometerVisibility
4:43 AM
Jul 25
75 °FClear.No wind83%29.98 "Hg15 mi
3:48 AM77 °FClear.No wind79%29.94 "Hg15 mi
2:44 AM79 °FClear.No wind74%29.99 "Hg15 mi
1:46 AM81 °FClear.8 mph70%30.00 "Hg15 mi
12:46 AM81 °FClear.12 mph66%29.96 "Hg15 mi
11:46 PM
Jul 24
82 °FClear.7 mph58%29.99 "Hg15 mi
10:45 PM84 °FClear.12 mph51%29.97 "Hg15 mi
9:45 PM86 °FPassing clouds.12 mph43%29.92 "Hg15 mi
8:45 PM88 °FCloudy.7 mph38%29.94 "Hg10 mi
7:45 PM95 °FBroken clouds.9 mph26%29.91 "Hg8 mi
5:47 PM97 °FScattered clouds.7 mph25%29.89 "Hg8 mi
4:43 PM97 °FPartly sunny.13 mph32%29.92 "Hg10 mi
3:52 PM97 °FPartly sunny.10 mph25%29.89 "Hg10 mi
2:51 PM97 °FScattered clouds.6 mph25%29.94 "Hg10 mi
1:50 PM97 °FScattered clouds.10 mph23%29.97 "Hg8 mi
12:48 PM93 °FScattered clouds.12 mph32%29.97 "Hg8 mi
11:49 AM91 °FScattered clouds.9 mph36%30.01 "Hg7 mi
10:50 AM88 °FSunny.No wind49%30.02 "Hg7 mi
9:53 AM84 °FSunny.No wind62%30.00 "Hg5 mi
8:51 AM82 °FSunny.No wind70%30.02 "Hg5 mi
7:48 AM75 °FClear.No wind89%30.02 "Hg4 mi
Weather by CustomWeather, © 2014

See weather overviewHow to use our weather pages